Погода Старая Русса

Хотите узнать прогноз погоды Старая Русса? Тогда Вам сюда: Погода Старая Русса

Поиск расширенной информации на нашем сайте:

Полезная информация:

Новости сайта



02.01.2020
Опубликован Долгосрочный прогноз погоды по городам России и ближнего зарубежья на январь 2020 года.
Карты: Прогноз на январь и февраль 2020 года, Сравнение прогнозируемой аномалии приземной температуры воздуха на январь 2020 года по разным моделям.




Погода Старая Русса - сегодня

Время (UTC), дата Ветер
(°,м/с) 
Видим.   Явления Облачность Т
(°С)
Тd
(°С)
f(%) Тe
(°С)
Pmin
(гПа)
dP
(гПа)
Po
(мм)
O2
(г/м3)
Тmin Tmax R s Состояние
почвы
12 19.10.20 220 (ЮЗ) 5{10}  20000 м  {ливн. осадки}  9/3 300 м кучево-дожд., средняя 
[Cb cap|Ac trans]
+5.8 +0.6 69 +4  1004  -0.2  751  296           
15 19.10.20 220 (ЮЗ) 5-10{11}  20000 м    10/8 300 м кучево-дожд., средняя 
[Cb cap|Ac As]
+4.7 +0.3 73 +3  1003.3  -0.7  750  297      0.5     
18 19.10.20 240 (ЮЗ) 3{12}  20000 м  {ливн. осадки}  3/0 средняя 
[Ac trans]
+0.5 -0.1 96 -1  1004.5  1.1  751  302    +5.8     
21 19.10.20 250 (З) 20000 м    6/0 средняя 
[Ac trans]
+1.7 +0.2 90 1006.5  753  301           
00 20.10.20 250 (З) 20000 м    10/10 540 м 
[Sc]
+1.8 +0.9 94 +1  1006.8  0.3  753  301           
03 20.10.20 250 (З) 20000 м    10/10 600 м 
[Sc]
+1.9 +0.7 92 +1  1008  1.2  754  301  +0.4       
06 20.10.20 300 (СЗ) 20000 м  в посл. час ливневой дождь  6/6 300 м кучево-дожд. 
[Cb cap]
+2.3 +0.6 88 1010.8  2.8  756  302  +0.7    0.0     
09 20.10.20 310 (СЗ) 5{10}  20000 м  {ливн. осадки}  10/10 960 м кучево-дожд. 
[Cb cap]
+3.5 -1.1 72 +1  1014.2  3.4  758  302           
12 20.10.20 310 (СЗ) 4{10}  20000 м  {ливн. осадки}  3/3 300 м кучево-дожд. 
[Cb cap]
+4 +0.2 76 +2  1017.3  3.1  761  302           
15 20.10.20 310 (СЗ) 20000 м  {ливн. осадки}  3/3 600 м 
[Sc diur, vesp]
+1.1 -1.3 84 1019.6  2.3  762  306      0.0     
18 20.10.20 240 (ЮЗ) 20000 м  {ливн. осадки}  10/0 средняя 
[Ac und]
+0.4 -0.7 92 1020.2  0.6  763  307    +5.1  0.0     
21 20.10.20 220 (ЮЗ) 20000 м    9/9 1080 м 
[Sc]
+0.7 +0.1 96 +1  1020.9  0.7  763  307           
00 21.10.20 210 (ЮЗ) 20000 м    5/5 1000 м 
[Sc]
+0.5 -0.2 95 +1  1020.5  -0.4  763  307           
03 21.10.20 140 (ЮВ) 20000 м    8/8 1000 м 
[Sc]
+0.1 -0.5 96 +1  1019.5  -1  762  307  -1         
06 21.10.20 160 (Ю) 10 км  слаб. дождь  10/10 720 м 
[Sc]
+1 +0.2 94 1018.2  -1.3  761  306  -1    0.3     
09 21.10.20 170 (Ю) 10 км  слаб. дождь  10/8 210 м средняя 
[Frnb|As trans]
+3.3 +2.4 94 +2  1017.6  -0.6  761  303           
12 21.10.20 130 (ЮВ) 10 км  слаб. дождь  10/10 300 м 
[Frnb|Ns]
+4.8 +3.3 90 +4  1015.9  -1.7  760  300           
15 21.10.20 140 (ЮВ) 10 км  слаб. дождь  10/10 270 м 
[Frnb|Ns]
+4.3 +3.1 92 +3  1015.3  -0.6  759  301         
18 21.10.20 150 (ЮВ) 20000 м  {дождь}  10/10 150 м 
[St]
+3.8 +3.2 96 +3  1014.7  -0.6  759  301    +4.8  0.9     
21 21.10.20 150 (ЮВ) 4000 м  слаб. морось  10/10 120 м 
[St]
+4 +3.7 98 +4  1014.2  -0.5  758  301           
00 22.10.20 150 (ЮВ) 4000 м  дымка{морось}  10/10 150 м 
[St]
+4.4 +3.9 97 +3  1013.4  -0.7  758  300           
03 22.10.20 150 (ЮВ) 4000 м  дымка{морось}  10/10 150 м 
[St]
+5.1 +4.7 97 +4  1011.2  -2.2  756  298  +3.8    0.0     
06 22.10.20 140 (ЮВ) 10 км  слаб. дождь{морось}  10/10 270 м 
[Frnb|Ns]
+5.9 +5.3 96 +5  1008.9  -2.3  754  297  +3.8    0.5     
09 22.10.20 160 (Ю) 10 км  слаб. дождь  10/10 300 м 
[Frnb|Ns]
+6.6 +5.9 95 +6  1006  -2.9  752  295           
12 22.10.20 170 (Ю) 10 км  слаб. дождь  10/10 300 м 
[Frnb|Ns]
+7.4 +6.7 95 +6  1002.7  -3.3  750  293           
Время (UTC), дата Ветер
(°,м/с) 
Видим.   Явления Облачность Т
(°С)
Тd
(°С)
f(%) Тe
(°С)
Pmin
(гПа)
dP
(гПа)
Po
(мм)
O2
(г/м3)
Тmin Tmax R s Состояние
почвы

Для получения пояснительной информации подведите курсор к названию столбца.

ПОГОДА Старая Русса - архив

Всё, что Вы хотите узнать о погоде Старая Русса - удобно и подробно!

Выберите нужную дату (начиная с 1 января 2019* года) и нажмите кнопку "Найти".
Будут отображены архивные сводки погоды по пункту Старая Русса, начиная с указанной даты.


Отображать данные в формате CSV (для использования в таблицах Excel)


Внимание! Наш архив погоды предназначен исключительно для личного некоммерческого использования в познавательных целях. Если Вам необходимы официальные справки о состоянии погоды (для производственных, юридических, коммерческих и т.п. целей), обращайтесь в органы Росгидромета.

*Примечание: данная дата относится к архиву по метеостанциям СССР (Россия, СНГ, Балтия).
Архив по метеостанциям Зарубежной Европы и Азии (кроме Китая) хранится 10 дней, по другим регионам земного шара (Китай, Африка, Америка, Австралия, Океания) - 1 день.

Старая Русса - район местоположения метеостанции


Название, широта, долгота, высота метеостанции:
Старая Русса 58°ш. 31.3°д. 25 м над ур. моря [Российская Федерация]

Дополнительная информация

В oтличие oт бoльшинства пoгoдных сайтoв мы публикуем пoдрoбную метеoинфoрмацию в детальнoм прoфессиoнальнoм фoрмате.

Характеристики температуры и влажнoсти вoздуха измеряются на высoте 2 м в тени вдали oт зданий и деревьев.
Скoрoсть ветра измеряется на высoте 10 м (на урoвне рoста челoвека скoрoсть ветра ниже в 1.5-2 раза). Если метеoстанция нахoдится в гoрoде или в лесу, тo скoрoсть ветра занижена на 2-4 м/с пo сравнению с oткрытым местoм. Скoрoсть ветра над акватoриями крупных рек и oзёр, а также на вершинах хoлмoв на 2-5 м/с выше, чем в oбычных услoвиях.
Атмoсфернoе давление в разных тoчках местнoсти мoжет значительнo oтличаться oт давления на метеoстанции, в зависимoсти oт услoвий рельефа (при пoдъёме на 10 м давление пoнижается примернo на 1 мм рт.ст.).